User: anonymous   Login
Location: 相模原市立博物館
(35.5593°N, 139.3931°E)
Time: 13:58:29
(UTC+09:00)
Language:

PicSat - Orbit

View from above orbital plane
View from above orbital plane
View from above satellite
View from above satellite

Ground track
Ground track

The orbit data is extracted from the following two-line orbital elements,

1 43131U 18004W   22024.46968822  .00007697  00000-0  26722-3 0  9991
2 43131  97.3909 104.0675 0008688 133.6639 226.5323 15.30020615224526
Epoch (UTC): 24 January 2022 11:16:21
Eccentricity: 0.0008688
inclination: 97.3909°
perigee height: 470 km
apogee height: 482 km
right ascension of ascending node: 104.0675°
argument of perigee: 133.6639°
revolutions per day: 15.30020615
mean anomaly at epoch: 226.5323°
orbit number at epoch: 22452

The dashed part of the orbit path shows where the satellite is in the earth's shadow,  

DLR